| time (UTC) | temp F | wind direction | speed MPH | gust MPH | rain 1hr in | rain 24hr in | rain mn in | humidity % | barometer mb |
| 20260831224036 | 98 | 120 | 10.0 | 19.0 | 0.00 | 0.00 | 0.00 | 37 | 1013.2 |
| 20260831223534 | 98 | 96 | 9.0 | 19.0 | 0.00 | 0.00 | 0.00 | 39 | 1013.1 |
| 20260831223049 | 98 | 149 | 6.0 | 11.0 | 0.00 | 0.00 | 0.00 | 38 | 1013.2 |
| 20260831222534 | 98 | 112 | 7.0 | 18.0 | 0.00 | 0.00 | 0.00 | 38 | 1013.2 |
| 20260831222032 | 98 | 95 | 7.0 | 18.0 | 0.00 | 0.00 | 0.00 | 37 | 1013.3 |
| 20260831221604 | 99 | 143 | 6.0 | 16.0 | 0.00 | 0.00 | 0.00 | 38 | 1013.4 |
| 20260831221036 | 99 | 91 | 8.0 | 20.0 | 0.00 | 0.00 | 0.00 | 38 | 1013.4 |
| 20260831220533 | 100 | 112 | 11.0 | 20.0 | 0.00 | 0.00 | 0.00 | 36 | 1013.5 |
| 20260831220105 | 100 | 111 | 5.0 | 12.0 | 0.00 | 0.00 | 0.00 | 36 | 1013.4 |
| 20260831215534 | 99 | 130 | 7.0 | 15.0 | 0.00 | 0.00 | 0.00 | 36 | 1013.5 |
| 20260831215036 | 99 | 128 | 8.0 | 17.0 | 0.00 | 0.00 | 0.00 | 35 | 1013.7 |
| 20260831214600 | 101 | 116 | 9.0 | 17.0 | 0.00 | 0.00 | 0.00 | 36 | 1013.7 |
| 20260831214032 | 101 | 99 | 6.0 | 16.0 | 0.00 | 0.00 | 0.00 | 36 | 1013.7 |
| 20260831213533 | 100 | 167 | 7.0 | 16.0 | 0.00 | 0.00 | 0.00 | 35 | 1013.8 |
| 20260831213103 | 100 | 358 | 5.0 | 14.0 | 0.00 | 0.00 | 0.00 | 37 | 1013.8 |
| 20260831212533 | 101 | 112 | 8.0 | 14.0 | 0.00 | 0.00 | 0.00 | 35 | 1013.9 |
| 20260831212037 | 101 | 125 | 8.0 | 16.0 | 0.00 | 0.00 | 0.00 | 34 | 1014.0 |
| 20260831211604 | 101 | 133 | 6.0 | 16.0 | 0.00 | 0.00 | 0.00 | 37 | 1014.1 |
| 20260831211033 | 100 | 164 | 7.0 | 16.0 | 0.00 | 0.00 | 0.00 | 36 | 1014.2 |
| 20260831210534 | 100 | 221 | 6.0 | 12.0 | 0.00 | 0.00 | 0.00 | 34 | 1014.2 |
| 20260831210104 | 99 | 151 | 5.0 | 15.0 | 0.00 | 0.00 | 0.00 | 36 | 1014.3 |
| 20260831205534 | 98 | 161 | 6.0 | 17.0 | 0.00 | 0.00 | 0.00 | 36 | 1014.4 |
| 20260831205033 | 101 | 91 | 8.0 | 17.0 | 0.00 | 0.00 | 0.00 | 34 | 1014.6 |
| 20260831204600 | 101 | 149 | 6.0 | 15.0 | 0.00 | 0.00 | 0.00 | 35 | 1014.6 |
| 20260831204036 | 101 | 74 | 9.0 | 16.0 | 0.00 | 0.00 | 0.00 | 36 | 1014.7 |
| 20260831203535 | 100 | 108 | 7.0 | 16.0 | 0.00 | 0.00 | 0.00 | 38 | 1014.8 |
| 20260831203107 | 100 | 111 | 10.0 | 18.0 | 0.00 | 0.00 | 0.00 | 38 | 1014.9 |
| 20260831202533 | 99 | 15 | 4.0 | 18.0 | 0.00 | 0.00 | 0.00 | 37 | 1015.0 |
| 20260831202033 | 99 | 164 | 10.0 | 18.0 | 0.00 | 0.00 | 0.00 | 38 | 1015.2 |
| 20260831201551 | 100 | 110 | 6.0 | 22.0 | 0.00 | 0.00 | 0.00 | 37 | 1015.2 |
| 20260831201036 | 99 | 101 | 9.0 | 22.0 | 0.00 | 0.00 | 0.00 | 40 | 1015.2 |
| 20260831200535 | 98 | 134 | 4.0 | 19.0 | 0.00 | 0.00 | 0.00 | 39 | 1015.3 |
| 20260831200103 | 98 | 125 | 7.0 | 14.0 | 0.00 | 0.00 | 0.00 | 41 | 1015.4 |
| 20260831195533 | 97 | 99 | 7.0 | 15.0 | 0.00 | 0.00 | 0.00 | 40 | 1015.4 |
| 20260831195032 | 96 | 135 | 2.0 | 16.0 | 0.00 | 0.00 | 0.00 | 41 | 1015.5 |
| 20260831194556 | 98 | 151 | 7.0 | 17.0 | 0.00 | 0.00 | 0.00 | 39 | 1015.6 |
| 20260831194034 | 99 | 118 | 9.0 | 17.0 | 0.00 | 0.00 | 0.00 | 40 | 1015.7 |
| 20260831193533 | 99 | 145 | 3.0 | 14.0 | 0.00 | 0.00 | 0.00 | 41 | 1015.6 |
| 20260831193057 | 98 | 78 | 6.0 | 14.0 | 0.00 | 0.00 | 0.00 | 44 | 1015.8 |
| 20260831192534 | 96 | 108 | 6.0 | 15.0 | 0.00 | 0.00 | 0.00 | 44 | 1015.8 |
| 20260831192033 | 95 | 160 | 6.0 | 15.0 | 0.00 | 0.00 | 0.00 | 45 | 1015.9 |
| 20260831191551 | 97 | 164 | 5.0 | 14.0 | 0.00 | 0.00 | 0.00 | 43 | 1015.9 |
| 20260831191033 | 96 | 160 | 6.0 | 14.0 | 0.00 | 0.00 | 0.00 | 43 | 1016.0 |
| 20260831190533 | 97 | 55 | 4.0 | 18.0 | 0.00 | 0.00 | 0.00 | 43 | 1016.0 |
| 20260831190106 | 97 | 139 | 4.0 | 19.0 | 0.00 | 0.00 | 0.00 | 43 | 1016.1 |
| 20260831185532 | 97 | 140 | 8.0 | 19.0 | 0.00 | 0.00 | 0.00 | 42 | 1016.2 |
| 20260831185031 | 97 | 156 | 9.0 | 17.0 | 0.00 | 0.00 | 0.00 | 44 | 1016.1 |
| 20260831184602 | 97 | 117 | 8.0 | 17.0 | 0.00 | 0.00 | 0.00 | 44 | 1016.1 |
| 20260831184032 | 96 | 144 | 5.0 | 13.0 | 0.00 | 0.00 | 0.00 | 45 | 1016.2 |
| 20260831183532 | 94 | 181 | 6.0 | 14.0 | 0.00 | 0.00 | 0.00 | 47 | 1016.3 |
| 20260831183056 | 93 | 133 | 7.0 | 17.0 | 0.00 | 0.00 | 0.00 | 48 | 1016.4 |
| 20260831182534 | 96 | 36 | 3.0 | 17.0 | 0.00 | 0.00 | 0.00 | 48 | 1016.3 |
| 20260831182030 | 96 | 137 | 10.0 | 18.0 | 0.00 | 0.00 | 0.00 | 46 | 1016.4 |
| 20260831181600 | 95 | 130 | 8.0 | 18.0 | 0.00 | 0.00 | 0.00 | 47 | 1016.5 |
| 20260831181034 | 96 | 143 | 6.0 | 18.0 | 0.00 | 0.00 | 0.00 | 48 | 1016.6 |
| 20260831180535 | 96 | 160 | 6.0 | 16.0 | 0.00 | 0.00 | 0.00 | 48 | 1016.7 |
| 20260831175532 | 95 | 68 | 7.0 | 19.0 | 0.00 | 0.00 | 0.00 | 50 | 1016.8 |
| 20260831175033 | 94 | 87 | 8.0 | 19.0 | 0.00 | 0.00 | 0.00 | 50 | 1016.8 |
| 20260831174550 | 93 | 172 | 3.0 | 15.0 | 0.00 | 0.00 | 0.00 | 53 | 1016.8 |
| 20260831174032 | 94 | 120 | 6.0 | 15.0 | 0.00 | 0.00 | 0.00 | 53 | 1017.0 |
| 20260831173533 | 94 | 112 | 9.0 | 14.0 | 0.00 | 0.00 | 0.00 | 50 | 1017.0 |
| 20260831173056 | 94 | 143 | 7.0 | 14.0 | 0.00 | 0.00 | 0.00 | 51 | 1017.0 |
| 20260831172534 | 94 | 105 | 6.0 | 14.0 | 0.00 | 0.00 | 0.00 | 53 | 1017.0 |
| 20260831172033 | 94 | 176 | 7.0 | 17.0 | 0.00 | 0.00 | 0.00 | 52 | 1016.9 |
| 20260831171558 | 93 | 116 | 6.0 | 17.0 | 0.00 | 0.00 | 0.00 | 55 | 1017.0 |
| 20260831171033 | 91 | 147 | 4.0 | 15.0 | 0.00 | 0.00 | 0.00 | 56 | 1017.0 |
| 20260831170533 | 93 | 109 | 9.0 | 15.0 | 0.00 | 0.00 | 0.00 | 55 | 1017.1 |
| 20260831170049 | 92 | 90 | 9.0 | 15.0 | 0.00 | 0.00 | 0.00 | 56 | 1017.2 |
| 20260831165533 | 91 | 133 | 7.0 | 14.0 | 0.00 | 0.00 | 0.00 | 56 | 1017.2 |
| 20260831165032 | 92 | 106 | 4.0 | 14.0 | 0.00 | 0.00 | 0.00 | 56 | 1017.2 |
| 20260831164625 | 92 | 149 | 3.0 | 15.0 | 0.00 | 0.00 | 0.00 | 57 | 1017.2 |
| 20260831164032 | 92 | 108 | 7.0 | 15.0 | 0.00 | 0.00 | 0.00 | 56 | 1017.2 |
| 20260831163534 | 91 | 160 | 6.0 | 15.0 | 0.00 | 0.00 | 0.00 | 58 | 1017.2 |
| 20260831163056 | 90 | 85 | 6.0 | 14.0 | 0.00 | 0.00 | 0.00 | 57 | 1017.1 |
| 20260831162534 | 90 | 116 | 7.0 | 15.0 | 0.00 | 0.00 | 0.00 | 60 | 1017.2 |
| 20260831162035 | 90 | 112 | 8.0 | 15.0 | 0.00 | 0.00 | 0.00 | 60 | 1017.3 |
| 20260831161558 | 90 | 88 | 5.0 | 14.0 | 0.00 | 0.00 | 0.00 | 63 | 1017.3 |
| 20260831161034 | 89 | 176 | 6.0 | 14.0 | 0.00 | 0.00 | 0.00 | 62 | 1017.3 |
| 20260831160535 | 88 | 107 | 7.0 | 14.0 | 0.00 | 0.00 | 0.00 | 63 | 1017.3 |
| 20260831155535 | 88 | 182 | 8.0 | 15.0 | 0.00 | 0.00 | 0.00 | 64 | 1017.3 |
| 20260831155035 | 87 | 174 | 5.0 | 12.0 | 0.00 | 0.00 | 0.00 | 66 | 1017.2 |
| 20260831154615 | 87 | 149 | 6.0 | 12.0 | 0.00 | 0.00 | 0.00 | 68 | 1017.3 |
| 20260831154034 | 86 | 118 | 4.0 | 15.0 | 0.00 | 0.00 | 0.00 | 69 | 1017.3 |
| 20260831153533 | 86 | 126 | 8.0 | 15.0 | 0.00 | 0.00 | 0.00 | 71 | 1017.3 |
| 20260831153101 | 86 | 87 | 3.0 | 10.0 | 0.00 | 0.00 | 0.00 | 71 | 1017.2 |
| 20260831152533 | 85 | 161 | 3.0 | 14.0 | 0.00 | 0.00 | 0.00 | 72 | 1017.3 |
| 20260831152033 | 85 | 186 | 7.0 | 14.0 | 0.00 | 0.00 | 0.00 | 73 | 1017.2 |
| 20260831151605 | 84 | 146 | 6.0 | 14.0 | 0.00 | 0.00 | 0.00 | 75 | 1017.2 |
| 20260831151033 | 84 | 160 | 6.0 | 14.0 | 0.00 | 0.00 | 0.00 | 75 | 1017.0 |
| 20260831150535 | 85 | 139 | 7.0 | 14.0 | 0.00 | 0.00 | 0.00 | 75 | 1017.1 |
| 20260831150058 | 84 | 161 | 5.0 | 13.0 | 0.00 | 0.00 | 0.00 | 78 | 1017.1 |
| 20260831145535 | 83 | 138 | 5.0 | 12.0 | 0.00 | 0.00 | 0.00 | 78 | 1017.1 |
| 20260831145035 | 83 | 151 | 6.0 | 12.0 | 0.00 | 0.00 | 0.00 | 79 | 1017.1 |
| 20260831144614 | 83 | 132 | 6.0 | 14.0 | 0.00 | 0.00 | 0.00 | 78 | 1017.1 |
| 20260831144035 | 83 | 166 | 6.0 | 14.0 | 0.00 | 0.00 | 0.00 | 80 | 1017.1 |
| 20260831143534 | 82 | 133 | 6.0 | 11.0 | 0.00 | 0.00 | 0.00 | 80 | 1017.0 |
| 20260831143101 | 82 | 195 | 5.0 | 11.0 | 0.00 | 0.00 | 0.00 | 81 | 1017.1 |
| 20260831142534 | 81 | 129 | 5.0 | 11.0 | 0.00 | 0.00 | 0.00 | 83 | 1017.0 |
| 20260831142035 | 81 | 80 | 6.0 | 11.0 | 0.00 | 0.00 | 0.00 | 83 | 1017.0 |
| 20260831141607 | 82 | 145 | 6.0 | 11.0 | 0.00 | 0.00 | 0.00 | 83 | 1017.1 |
| 20260831141033 | 80 | 153 | 5.0 | 11.0 | 0.00 | 0.00 | 0.00 | 86 | 1017.1 |
| 20260831140534 | 80 | 120 | 5.0 | 10.0 | 0.00 | 0.00 | 0.00 | 88 | 1017.1 |
| 20260831140054 | 78 | 97 | 3.0 | 10.0 | 0.00 | 0.00 | 0.00 | 91 | 1017.0 |
| 20260831135538 | 78 | 116 | 5.0 | 10.0 | 0.00 | 0.00 | 0.00 | 91 | 1016.8 |
| 20260831135038 | 78 | 122 | 5.0 | 10.0 | 0.00 | 0.00 | 0.00 | 91 | 1016.9 |
| 20260831134559 | 78 | 141 | 5.0 | 10.0 | 0.00 | 0.00 | 0.00 | 91 | 1016.9 |
| 20260831134032 | 78 | 183 | 3.0 | 9.0 | 0.00 | 0.00 | 0.00 | 91 | 1016.9 |
| 20260831133534 | 77 | 135 | 3.0 | 9.0 | 0.00 | 0.00 | 0.00 | 91 | 1016.7 |
| 20260831133058 | 77 | 147 | 3.0 | 7.0 | 0.00 | 0.00 | 0.00 | 91 | 1016.7 |
| 20260831132533 | 77 | 133 | 2.0 | 7.0 | 0.00 | 0.00 | 0.00 | 91 | 1016.6 |
| 20260831132033 | 77 | 118 | 3.0 | 7.0 | 0.00 | 0.00 | 0.00 | 91 | 1016.7 |
| 20260831131600 | 77 | 128 | 3.0 | 6.0 | 0.00 | 0.00 | 0.00 | 91 | 1016.6 |
| 20260831131034 | 76 | 115 | 2.0 | 6.0 | 0.00 | 0.00 | 0.00 | 90 | 1016.6 |
| 20260831130535 | 76 | 94 | 1.0 | 4.0 | 0.00 | 0.00 | 0.00 | 90 | 1016.5 |
| 20260831130101 | 76 | 79 | 1.0 | 4.0 | 0.00 | 0.00 | 0.00 | 90 | 1016.5 |
| 20260831125536 | 76 | 108 | 1.0 | 4.0 | 0.00 | 0.00 | 0.00 | 90 | 1016.5 |
| 20260831125038 | 76 | 106 | 1.0 | 3.0 | 0.00 | 0.00 | 0.00 | 89 | 1016.5 |
| 20260831124556 | 76 | 133 | 1.0 | 3.0 | 0.00 | 0.00 | 0.00 | 89 | 1016.4 |
| 20260831124035 | 76 | 133 | 1.0 | 2.0 | 0.00 | 0.00 | 0.00 | 89 | 1016.4 |
| 20260831123533 | 76 | 133 | 0.0 | 2.0 | 0.00 | 0.00 | 0.00 | 89 | 1016.3 |
| 20260831123100 | 76 | 0 | 0.0 | 3.0 | 0.00 | 0.00 | 0.00 | 89 | 1016.3 |
| 20260831122533 | 76 | 0 | 1.0 | 3.0 | 0.00 | 0.00 | 0.00 | 89 | 1016.2 |
| 20260831122037 | 76 | 0 | 0.0 | 2.0 | 0.00 | 0.00 | 0.00 | 89 | 1016.3 |
| 20260831121553 | 76 | 0 | 0.0 | 2.0 | 0.00 | 0.00 | 0.00 | 89 | 1016.3 |
| 20260831121036 | 76 | 0 | 0.0 | 2.0 | 0.00 | 0.00 | 0.00 | 89 | 1016.2 |
| 20260831120534 | 76 | 0 | 0.0 | 2.0 | 0.00 | 0.00 | 0.00 | 89 | 1016.1 |
| 20260831115533 | 76 | 133 | 1.0 | 3.0 | 0.00 | 0.00 | 0.00 | 89 | 1016.1 |
| 20260831115034 | 76 | 133 | 1.0 | 5.0 | 0.00 | 0.00 | 0.00 | 89 | 1016.1 |
| 20260831114557 | 77 | 133 | 1.0 | 5.0 | 0.00 | 0.00 | 0.00 | 89 | 1016.1 |
| 20260831114033 | 77 | 115 | 1.0 | 5.0 | 0.00 | 0.00 | 0.00 | 89 | 1016.1 |
| 20260831113533 | 77 | 141 | 2.0 | 4.0 | 0.00 | 0.00 | 0.00 | 89 | 1016.1 |
| 20260831113108 | 77 | 116 | 2.0 | 4.0 | 0.00 | 0.00 | 0.00 | 89 | 1016.1 |
| 20260831112538 | 77 | 116 | 2.0 | 4.0 | 0.00 | 0.00 | 0.00 | 89 | 1016.1 |
| 20260831112033 | 77 | 116 | 1.0 | 4.0 | 0.00 | 0.00 | 0.00 | 89 | 1016.0 |
| 20260831111605 | 77 | 120 | 1.0 | 4.0 | 0.00 | 0.00 | 0.00 | 89 | 1016.1 |
| 20260831111034 | 77 | 94 | 1.0 | 4.0 | 0.00 | 0.00 | 0.00 | 89 | 1016.1 |
| 20260831110538 | 77 | 84 | 2.0 | 6.0 | 0.00 | 0.00 | 0.00 | 89 | 1016.1 |
| 20260831105536 | 77 | 70 | 2.0 | 6.0 | 0.00 | 0.00 | 0.00 | 89 | 1016.1 |
| 20260831105034 | 77 | 74 | 2.0 | 4.0 | 0.00 | 0.00 | 0.00 | 89 | 1016.2 |
| 20260831104600 | 76 | 111 | 1.0 | 3.0 | 0.00 | 0.00 | 0.00 | 89 | 1016.1 |
| 20260831104036 | 76 | 95 | 1.0 | 3.0 | 0.00 | 0.00 | 0.00 | 89 | 1016.1 |
| 20260831103535 | 76 | 0 | 1.0 | 4.0 | 0.00 | 0.00 | 0.00 | 89 | 1016.0 |
| 20260831103059 | 76 | 139 | 1.0 | 5.0 | 0.00 | 0.00 | 0.00 | 88 | 1016.1 |
| 20260831102537 | 76 | 126 | 2.0 | 5.0 | 0.00 | 0.00 | 0.00 | 88 | 1016.1 |
| 20260831102033 | 76 | 127 | 2.0 | 4.0 | 0.00 | 0.00 | 0.00 | 88 | 1016.0 |
| 20260831101650 | 76 | 106 | 1.0 | 5.0 | 0.00 | 0.00 | 0.00 | 88 | 1016.0 |
| 20260831101034 | 76 | 119 | 2.0 | 5.0 | 0.00 | 0.00 | 0.00 | 88 | 1016.1 |
| 20260831100537 | 76 | 120 | 1.0 | 5.0 | 0.00 | 0.00 | 0.00 | 88 | 1016.1 |
| 20260831100105 | 76 | 100 | 2.0 | 4.0 | 0.00 | 0.00 | 0.00 | 87 | 1016.2 |
| 20260831095534 | 76 | 124 | 1.0 | 3.0 | 0.00 | 0.00 | 0.00 | 87 | 1016.2 |
| 20260831095035 | 76 | 137 | 1.0 | 3.0 | 0.00 | 0.00 | 0.00 | 87 | 1016.3 |
| 20260831094556 | 76 | 0 | 0.0 | 5.0 | 0.00 | 0.00 | 0.00 | 87 | 1016.2 |
| 20260831094033 | 76 | 122 | 1.0 | 5.0 | 0.00 | 0.00 | 0.00 | 86 | 1016.2 |
| 20260831093534 | 76 | 139 | 1.0 | 4.0 | 0.00 | 0.00 | 0.00 | 86 | 1016.1 |
| 20260831093058 | 75 | 139 | 0.0 | 3.0 | 0.00 | 0.00 | 0.00 | 86 | 1016.1 |
| 20260831092534 | 75 | 139 | 1.0 | 4.0 | 0.00 | 0.00 | 0.00 | 86 | 1016.1 |
| 20260831092034 | 75 | 139 | 1.0 | 4.0 | 0.00 | 0.00 | 0.00 | 85 | 1016.1 |
| 20260831091603 | 75 | 139 | 0.0 | 2.0 | 0.00 | 0.00 | 0.00 | 85 | 1016.1 |
| 20260831091034 | 75 | 0 | 0.0 | 2.0 | 0.00 | 0.00 | 0.00 | 84 | 1016.2 |
| 20260831090534 | 75 | 139 | 0.0 | 2.0 | 0.00 | 0.00 | 0.00 | 83 | 1016.1 |
| 20260831090052 | 75 | 139 | 0.0 | 2.0 | 0.00 | 0.00 | 0.00 | 82 | 1016.1 |
| 20260831085534 | 75 | 139 | 0.0 | 2.0 | 0.00 | 0.00 | 0.00 | 82 | 1016.1 |
| 20260831085035 | 75 | 139 | 0.0 | 1.0 | 0.00 | 0.00 | 0.00 | 82 | 1016.2 |
| 20260831084607 | 75 | 0 | 0.0 | 0.0 | 0.00 | 0.00 | 0.00 | 81 | 1016.1 |
| 20260831084035 | 76 | 0 | 0.0 | 0.0 | 0.00 | 0.00 | 0.00 | 81 | 1016.3 |
| 20260831083534 | 76 | 0 | 0.0 | 0.0 | 0.00 | 0.00 | 0.00 | 81 | 1016.2 |
| 20260831083103 | 76 | 0 | 0.0 | 0.0 | 0.00 | 0.00 | 0.00 | 81 | 1016.2 |
| 20260831082535 | 76 | 0 | 0.0 | 0.0 | 0.00 | 0.00 | 0.00 | 81 | 1016.3 |
| 20260831082034 | 77 | 0 | 0.0 | 0.0 | 0.00 | 0.00 | 0.00 | 81 | 1016.2 |
| 20260831081608 | 77 | 0 | 0.0 | 1.0 | 0.00 | 0.00 | 0.00 | 81 | 1016.3 |
| 20260831081034 | 77 | 0 | 0.0 | 1.0 | 0.00 | 0.00 | 0.00 | 81 | 1016.3 |
| 20260831080534 | 77 | 0 | 0.0 | 2.0 | 0.00 | 0.00 | 0.00 | 81 | 1016.4 |
| 20260831080103 | 77 | 0 | 0.0 | 2.0 | 0.00 | 0.00 | 0.00 | 81 | 1016.4 |
| 20260831075534 | 78 | 0 | 0.0 | 2.0 | 0.00 | 0.00 | 0.00 | 81 | 1016.4 |
| 20260831075034 | 78 | 0 | 0.0 | 2.0 | 0.00 | 0.00 | 0.00 | 81 | 1016.4 |
| 20260831074557 | 78 | 0 | 0.0 | 4.0 | 0.00 | 0.00 | 0.00 | 81 | 1016.4 |
| 20260831074034 | 78 | 139 | 0.0 | 4.0 | 0.00 | 0.00 | 0.00 | 81 | 1016.4 |
| 20260831073534 | 78 | 139 | 1.0 | 4.0 | 0.00 | 0.00 | 0.00 | 81 | 1016.4 |
| 20260831073101 | 78 | 139 | 1.0 | 5.0 | 0.00 | 0.00 | 0.00 | 81 | 1016.4 |
| 20260831072533 | 78 | 116 | 2.0 | 7.0 | 0.00 | 0.00 | 0.00 | 80 | 1016.4 |
| 20260831072033 | 78 | 152 | 1.0 | 7.0 | 0.00 | 0.00 | 0.00 | 80 | 1016.4 |
| 20260831071558 | 79 | 139 | 2.0 | 8.0 | 0.00 | 0.00 | 0.00 | 80 | 1016.5 |
| 20260831071034 | 79 | 137 | 3.0 | 8.0 | 0.00 | 0.00 | 0.00 | 80 | 1016.5 |
| 20260831070535 | 79 | 158 | 3.0 | 9.0 | 0.00 | 0.00 | 0.00 | 80 | 1016.4 |
| 20260831070105 | 79 | 121 | 3.0 | 9.0 | 0.00 | 0.00 | 0.00 | 80 | 1016.4 |
| 20260831065537 | 79 | 141 | 3.0 | 11.0 | 0.00 | 0.00 | 0.00 | 79 | 1016.5 |
| 20260831065034 | 79 | 134 | 5.0 | 11.0 | 0.00 | 0.00 | 0.00 | 79 | 1016.5 |
| 20260831064557 | 79 | 130 | 4.0 | 11.0 | 0.00 | 0.00 | 0.00 | 79 | 1016.4 |
| 20260831064034 | 79 | 116 | 5.0 | 12.0 | 0.00 | 0.00 | 0.00 | 78 | 1016.4 |
| 20260831063534 | 80 | 129 | 5.0 | 12.0 | 0.00 | 0.00 | 0.00 | 78 | 1016.3 |
| 20260831063058 | 80 | 133 | 6.0 | 14.0 | 0.00 | 0.00 | 0.00 | 78 | 1016.3 |
| 20260831062534 | 80 | 133 | 7.0 | 14.0 | 0.00 | 0.00 | 0.00 | 77 | 1016.3 |
| 20260831062036 | 80 | 157 | 5.0 | 14.0 | 0.00 | 0.00 | 0.00 | 76 | 1016.3 |
| 20260831061558 | 80 | 138 | 7.0 | 14.0 | 0.00 | 0.00 | 0.00 | 75 | 1016.3 |
| 20260831061037 | 80 | 148 | 7.0 | 14.0 | 0.00 | 0.00 | 0.00 | 74 | 1016.3 |
| 20260831060533 | 80 | 110 | 3.0 | 8.0 | 0.00 | 0.00 | 0.00 | 73 | 1016.2 |
| 20260831055533 | 81 | 155 | 4.0 | 11.0 | 0.00 | 0.00 | 0.00 | 73 | 1016.3 |
| 20260831055034 | 81 | 158 | 5.0 | 14.0 | 0.00 | 0.00 | 0.00 | 72 | 1016.3 |
| 20260831054558 | 81 | 133 | 6.0 | 14.0 | 0.00 | 0.00 | 0.00 | 72 | 1016.3 |
| 20260831054034 | 81 | 114 | 6.0 | 14.0 | 0.00 | 0.00 | 0.00 | 72 | 1016.2 |
| 20260831053534 | 81 | 114 | 8.0 | 14.0 | 0.00 | 0.00 | 0.00 | 71 | 1016.1 |
| 20260831053101 | 81 | 126 | 5.0 | 14.0 | 0.00 | 0.00 | 0.00 | 71 | 1016.0 |
| 20260831052537 | 82 | 143 | 6.0 | 14.0 | 0.00 | 0.00 | 0.00 | 71 | 1015.9 |
| 20260831052033 | 82 | 158 | 7.0 | 14.0 | 0.00 | 0.00 | 0.00 | 70 | 1015.9 |
| 20260831051612 | 82 | 149 | 6.0 | 12.0 | 0.00 | 0.00 | 0.00 | 70 | 1015.9 |
| 20260831051034 | 82 | 141 | 5.0 | 11.0 | 0.00 | 0.00 | 0.00 | 69 | 1015.9 |
| 20260831050540 | 82 | 141 | 7.0 | 11.0 | 0.00 | 0.00 | 0.00 | 69 | 1015.9 |
| 20260831050104 | 83 | 156 | 5.0 | 11.0 | 0.00 | 0.00 | 0.00 | 69 | 1015.9 |
| 20260831045538 | 83 | 122 | 5.0 | 11.0 | 0.00 | 0.00 | 0.00 | 68 | 1015.8 |
| 20260831045034 | 83 | 118 | 4.0 | 14.0 | 0.00 | 0.00 | 0.00 | 68 | 1015.8 |
| 20260831044616 | 83 | 147 | 7.0 | 13.0 | 0.00 | 0.00 | 0.00 | 68 | 1015.9 |
| 20260831044037 | 83 | 134 | 7.0 | 17.0 | 0.00 | 0.00 | 0.00 | 68 | 1015.8 |
| 20260831043532 | 83 | 160 | 8.0 | 17.0 | 0.00 | 0.00 | 0.00 | 67 | 1015.6 |
| 20260831043100 | 84 | 130 | 10.0 | 17.0 | 0.00 | 0.00 | 0.00 | 67 | 1015.6 |
| 20260831042532 | 84 | 154 | 8.0 | 16.0 | 0.00 | 0.00 | 0.00 | 67 | 1015.6 |
| 20260831042033 | 84 | 138 | 9.0 | 14.0 | 0.00 | 0.00 | 0.00 | 66 | 1015.4 |
| 20260831041600 | 84 | 114 | 6.0 | 16.0 | 0.00 | 0.00 | 0.00 | 66 | 1015.4 |
| 20260831041033 | 84 | 143 | 7.0 | 20.0 | 0.00 | 0.00 | 0.00 | 66 | 1015.4 |
| 20260831040535 | 84 | 160 | 8.0 | 20.0 | 0.00 | 0.00 | 0.00 | 65 | 1015.3 |
| 20260831040059 | 84 | 159 | 5.0 | 14.0 | 0.00 | 0.00 | 0.00 | 65 | 1015.3 |
| 20260831035534 | 84 | 108 | 6.0 | 14.0 | 0.00 | 0.00 | 0.00 | 64 | 1015.3 |
| 20260831035034 | 85 | 117 | 5.0 | 12.0 | 0.00 | 0.00 | 0.00 | 64 | 1015.1 |
| 20260831034558 | 85 | 151 | 5.0 | 12.0 | 0.00 | 0.00 | 0.00 | 64 | 1015.2 |
| 20260831034033 | 85 | 123 | 6.0 | 11.0 | 0.00 | 0.00 | 0.00 | 63 | 1015.1 |
| 20260831033535 | 85 | 132 | 5.0 | 11.0 | 0.00 | 0.00 | 0.00 | 63 | 1015.0 |
| 20260831033059 | 85 | 162 | 6.0 | 16.0 | 0.00 | 0.00 | 0.00 | 63 | 1015.0 |
| 20260831032533 | 85 | 153 | 6.0 | 16.0 | 0.00 | 0.00 | 0.00 | 63 | 1015.0 |
| 20260831032032 | 85 | 172 | 7.0 | 13.0 | 0.00 | 0.00 | 0.00 | 62 | 1014.9 |
| 20260831031603 | 85 | 137 | 6.0 | 14.0 | 0.00 | 0.00 | 0.00 | 62 | 1014.9 |
| 20260831031032 | 86 | 138 | 7.0 | 14.0 | 0.00 | 0.00 | 0.00 | 62 | 1014.7 |
| 20260831030532 | 86 | 154 | 6.0 | 13.0 | 0.00 | 0.00 | 0.00 | 61 | 1014.7 |
| 20260831030100 | 86 | 166 | 6.0 | 14.0 | 0.00 | 0.00 | 0.00 | 61 | 1014.7 |
| 20260831025532 | 86 | 134 | 5.0 | 14.0 | 0.00 | 0.00 | 0.00 | 61 | 1014.6 |
| 20260831025035 | 86 | 124 | 8.0 | 13.0 | 0.00 | 0.00 | 0.00 | 61 | 1014.5 |
| 20260831024607 | 86 | 147 | 4.0 | 8.0 | 0.00 | 0.00 | 0.00 | 61 | 1014.4 |
| 20260831024035 | 86 | 153 | 4.0 | 9.0 | 0.00 | 0.00 | 0.00 | 60 | 1014.4 |
| 20260831023534 | 86 | 133 | 4.0 | 10.0 | 0.00 | 0.00 | 0.00 | 60 | 1014.2 |
| 20260831023056 | 86 | 116 | 4.0 | 10.0 | 0.00 | 0.00 | 0.00 | 60 | 1014.2 |
| 20260831022535 | 86 | 132 | 4.0 | 11.0 | 0.00 | 0.00 | 0.00 | 60 | 1014.0 |
| 20260831022033 | 86 | 148 | 4.0 | 11.0 | 0.00 | 0.00 | 0.00 | 60 | 1014.0 |
| 20260831021559 | 86 | 140 | 5.0 | 10.0 | 0.00 | 0.00 | 0.00 | 59 | 1013.8 |
| 20260831021033 | 86 | 131 | 4.0 | 10.0 | 0.00 | 0.00 | 0.00 | 59 | 1013.7 |
| 20260831020536 | 86 | 157 | 4.0 | 9.0 | 0.00 | 0.00 | 0.00 | 58 | 1013.6 |
| 20260831020100 | 86 | 142 | 4.0 | 9.0 | 0.00 | 0.00 | 0.00 | 58 | 1013.5 |
| 20260831015532 | 87 | 143 | 4.0 | 7.0 | 0.00 | 0.00 | 0.00 | 56 | 1013.4 |
| 20260831015037 | 87 | 143 | 2.0 | 6.0 | 0.00 | 0.00 | 0.00 | 54 | 1013.5 |
| 20260831014557 | 87 | 110 | 3.0 | 6.0 | 0.00 | 0.00 | 0.00 | 53 | 1013.4 |
| 20260831014035 | 88 | 124 | 3.0 | 9.0 | 0.00 | 0.00 | 0.00 | 52 | 1013.3 |
| 20260831013534 | 88 | 128 | 3.0 | 9.0 | 0.00 | 0.00 | 0.00 | 51 | 1013.2 |
| 20260831013104 | 89 | 143 | 4.0 | 9.0 | 0.00 | 0.00 | 0.00 | 51 | 1013.2 |
| 20260831012537 | 90 | 140 | 1.0 | 2.0 | 0.00 | 0.00 | 0.00 | 50 | 1013.1 |
| 20260831012036 | 90 | 140 | 1.0 | 2.0 | 0.00 | 0.00 | 0.00 | 49 | 1013.0 |
| 20260831011604 | 90 | 140 | 1.0 | 2.0 | 0.00 | 0.00 | 0.00 | 50 | 1013.1 |
| 20260831011037 | 91 | 140 | 1.0 | 2.0 | 0.00 | 0.00 | 0.00 | 48 | 1013.0 |
| 20260831010533 | 91 | 140 | 1.0 | 2.0 | 0.00 | 0.00 | 0.00 | 48 | 1013.0 |
| 20260831010059 | 92 | 140 | 1.0 | 3.0 | 0.00 | 0.00 | 0.00 | 46 | 1012.9 |
| 20260831005534 | 92 | 140 | 1.0 | 4.0 | 0.00 | 0.00 | 0.00 | 45 | 1012.9 |
| 20260831005033 | 92 | 140 | 2.0 | 5.0 | 0.00 | 0.00 | 0.00 | 44 | 1012.8 |
| 20260831004557 | 93 | 116 | 1.0 | 6.0 | 0.00 | 0.00 | 0.00 | 44 | 1012.8 |
| 20260831004037 | 93 | 116 | 2.0 | 11.0 | 0.00 | 0.00 | 0.00 | 44 | 1012.9 |
| 20260831003533 | 93 | 139 | 5.0 | 11.0 | 0.00 | 0.00 | 0.00 | 43 | 1012.9 |
| 20260831003104 | 93 | 89 | 6.0 | 11.0 | 0.00 | 0.00 | 0.00 | 44 | 1012.8 |
| 20260831002534 | 93 | 101 | 5.0 | 13.0 | 0.00 | 0.00 | 0.00 | 43 | 1012.8 |
| 20260831002034 | 93 | 135 | 7.0 | 13.0 | 0.00 | 0.00 | 0.00 | 43 | 1012.8 |
| 20260831001608 | 93 | 137 | 5.0 | 11.0 | 0.00 | 0.00 | 0.00 | 43 | 1012.7 |
| 20260831001034 | 93 | 154 | 6.0 | 11.0 | 0.00 | 0.00 | 0.00 | 43 | 1012.7 |
| 20260831000534 | 94 | 153 | 4.0 | 13.0 | 0.00 | 0.00 | 0.00 | 42 | 1012.7 |
| 20260830235539 | 94 | 161 | 4.0 | 12.0 | 0.00 | 0.00 | 0.00 | 43 | 1012.8 |
| 20260830235039 | 94 | 101 | 5.0 | 12.0 | 0.00 | 0.00 | 0.00 | 42 | 1012.8 |
| 20260830234607 | 95 | 113 | 7.0 | 16.0 | 0.00 | 0.00 | 0.00 | 42 | 1012.9 |
| 20260830234034 | 95 | 108 | 7.0 | 17.0 | 0.00 | 0.00 | 0.00 | 41 | 1013.0 |
| 20260830233539 | 95 | 128 | 8.0 | 17.0 | 0.00 | 0.00 | 0.00 | 41 | 1012.9 |
| 20260830233058 | 95 | 97 | 7.0 | 13.0 | 0.00 | 0.00 | 0.00 | 42 | 1012.9 |
| 20260830232535 | 95 | 87 | 5.0 | 17.0 | 0.00 | 0.00 | 0.00 | 42 | 1012.8 |
| 20260830232034 | 96 | 91 | 8.0 | 18.0 | 0.00 | 0.00 | 0.00 | 40 | 1012.8 |
| 20260830231603 | 96 | 93 | 10.0 | 18.0 | 0.00 | 0.00 | 0.00 | 40 | 1012.9 |
| 20260830231034 | 96 | 145 | 7.0 | 18.0 | 0.00 | 0.00 | 0.00 | 40 | 1012.7 |
| 20260830230533 | 96 | 106 | 6.0 | 14.0 | 0.00 | 0.00 | 0.00 | 39 | 1012.8 |
| 20260830225534 | 97 | 93 | 8.0 | 14.0 | 0.00 | 0.00 | 0.00 | 38 | 1012.8 |
| 20260830225033 | 96 | 102 | 7.0 | 14.0 | 0.00 | 0.00 | 0.00 | 39 | 1012.9 |
| 20260830224557 | 97 | 113 | 8.0 | 16.0 | 0.00 | 0.00 | 0.00 | 40 | 1012.9 |